Location: Cosy Dell
(34.2789°N, 117.4537°W)
Time: 12:27:37
(UTC+00:00)

BREEZE-M (TANK) - Pass Details

Date: 14 July 2020
Orbit: 315 x 17583 km, 49.5° (Epoch: 08 August)

Event Time Altitude Azimuth Distance (km) Brightness Sun altitude
Rises 03:58:06 0° 204° (SSW) 2,142 5.4 -10.6°
Reaches altitude 10° 03:59:32 10° 194° (SSW) 1,490 4.5 -10.8°
Maximum altitude 04:02:12 37° 122° (ESE) 987 3.3 -11.3°
Drops below altitude 10° 04:09:00 10° 56° (ENE) 3,825 6.6 -12.4°
Sets 04:15:21 0° 52° (NE) 6,631 7.9 -13.4°
